Regional Weather Roundup
Issued by NWS Boston, MA

Home | Current Version | Previous Version | Text Only | Print | Product List | Glossary On
Versions: 1 2 3 4 5 6 7 8 9 10 11 12 13 14 15 16 17 18 19 20 21 22 23 24 25 26 27 28
000
ASUS41 KBOX 281510
RWRBOX

REGIONAL WEATHER ROUNDUP
NATIONAL WEATHER SERVICE TAUNTON MA
1000 AM EST TUE FEB 28 2017

NOTE:  "FAIR" INDICATES FEW OR NO CLOUDS BELOW 12,000 FEET WITH NO
SIGNIFICANT WEATHER AND/OR OBSTRUCTIONS TO VISIBILITY.

MAZALL-281600-
EASTERN MASSACHUSETTS

CITY           SKY/WX    TMP DP  RH WIND       PRES   REMARKS
BOSTON         CLOUDY    45  35  68 S5        30.40F
BEVERLY        CLOUDY    45  32  60 CALM      30.40F
LAWRENCE       CLOUDY    43  31  62 CALM      30.42S
BEDFORD        CLOUDY    45  30  55 SW3       30.38F
BLUE HILL        N/A     45  31  58 S3        30.37F
NORWOOD        CLOUDY    46  37  71 CALM      30.40F
MARSHFIELD     CLOUDY    46  36  66 CALM      30.40F
PLYMOUTH       CLOUDY    47  37  68 CALM      30.40F
TAUNTON        CLOUDY    47  37  68 SE3       30.39F
NEW BEDFORD    CLOUDY    50  38  63 NE3       30.39F
$$

MAZALL-281600-
CAPE COD AND THE ISLANDS

CITY           SKY/WX    TMP DP  RH WIND       PRES   REMARKS
FALMOUTH       CLOUDY    48  39  71 MISG      30.40F
HYANNIS        CLOUDY    48  40  73 CALM      30.39F
CHATHAM        PTSUNNY   47  42  83 CALM      30.41F
PROVINCETOWN   CLOUDY    45  38  76 CALM      30.42F
NANTUCKET      PTSUNNY   46  40  79 S6        30.42S
MARTHAS VNYRD  SUNNY     50  45  81 CALM      30.42F
$$

MAZALL-281600-
CENTRAL AND WESTERN MASSACHUSETTS

CITY           SKY/WX    TMP DP  RH WIND       PRES   REMARKS
WORCESTER      CLOUDY    43  29  57 VRB6      30.35F
FITCHBURG      CLOUDY    45  31  58 CALM      30.38F
ORANGE         CLOUDY    38  30  73 CALM      30.37F
SPRINGFIELD    PTSUNNY   45  31  59 CALM      30.36F
WESTFIELD      CLOUDY    45  31  58 VRB3      30.36F
NORTH ADAMS    CLOUDY    42  29  59 CALM      30.34F
PITTSFIELD     MOSUNNY   43  36  76 CALM      30.31F
$$

RIZALL-281600-
RHODE ISLAND

CITY           SKY/WX    TMP DP  RH WIND       PRES   REMARKS
PROVIDENCE     CLOUDY    47  36  65 E3        30.39F
NEWPORT        CLOUDY    47  41  80 SE6       30.38F
BLOCK ISLAND   CLOUDY    47  43  86 SE7       30.39F
SMITHFIELD     CLOUDY    48  34  58 CALM      30.38F
WESTERLY       CLOUDY    49  39  68 E3        30.39F
$$

CTZALL-281600-
CONNECTICUT

CITY           SKY/WX    TMP DP  RH WIND       PRES   REMARKS
BRADLEY INTL   PTSUNNY   46  33  60 CALM      30.36F
HARTFORD       PTSUNNY   46  35  65 CALM      30.36F
BRIDGEPORT     CLOUDY    47  38  71 E9        30.37F
DANBURY        SUNNY     48  32  53 N5        30.36F
GROTON         CLOUDY    49  40  71 SE6       30.38F
NEW HAVEN      CLOUDY    48  38  68 E5        30.37F
CHESTER        FAIR      46  37  71 E3        30.36F
MERIDEN        PTSUNNY   49  35  58 CALM      30.35F
WILLIMANTIC    CLOUDY    43  35  73 CALM      30.38F
OXFORD         MOSUNNY   46  30  53 SE6       30.35F
$$

MEZ002-015-021-024-NHZ003-005-008-011-012-014-VTZ005-008-281600-
NORTHERN NEW ENGLAND

CITY           SKY/WX    TMP DP  RH WIND       PRES   REMARKS
PORTLAND ME    CLOUDY    41  25  53 E3        30.41F
BANGOR ME      MOSUNNY   37  27  67 CALM      30.41F
CONCORD NH     CLOUDY    42  25  50 CALM      30.39F
MANCHESTER NH  CLOUDY    40  26  57 N3        30.38F
NASHUA NH      CLOUDY    42  30  62 CALM      30.40S
PORTSMOUTH NH  CLOUDY    40  26  55 NW3       30.39F
JAFFREY NH     CLOUDY    39  27  62 CALM      30.36F
KEENE NH       PTSUNNY   37  26  64 CALM      30.38F
BURLINGTON VT  MOSUNNY   45  26  47 S6        30.33F
MT. WASHINGTON MOSUNNY   18  14  86 W18         N/A  WCI   2
$$

NYZ052-076-281600-
EASTERN NEW YORK

CITY           SKY/WX    TMP DP  RH WIND       PRES   REMARKS
ALBANY         PTSUNNY   47  31  53 S5        30.34F
NEW YORK CITY  MOSUNNY   47  38  71 NE10      30.35F
$$

ANZALL-281600-
MARINE OBSERVATIONS

STATION/POSITION TIME  TEMP    WIND        PRES    VSBY  WAVE
                       AIR SEA DIR/SP/G                  HT/PER
                 (UTC) (F)     (DEG/KT/KT) (MB)    (MI)  (FT/S)
BOSTON BUOY      1350   42 42  170/  6/  8 1029.3          1/10
BUZZARDS BAY     1400   44     100/  7/  7 1029.8F
NANTUCKET SOUND  1350   42 40  130/  4/  6 1030.2          1
MASS BAY-STELLWA 1404   42 41  210/  2/  2 1028.7R
ISLE OF SHOALS   1400   40     270/  3/  4 1029.6R
S OF BLOCK IS    1455      43                N/A           3/ 5
$$

......................KEY.........................
  SKY/WX - SKY CONDITION/PRESENT WEATHER
  TMP    - TEMPERATURE IN FAHRENHEIT
  DWPT   - DEWPOINT IN FAHRENHEIT
  RH     - RELATIVE HUMIDITY IN PERCENT
  WIND   - DIRECTION AND SPEED IN MPH
  PRES   - MEAN SEA LEVEL PRESSURE IN INCHES OF HG
  WCI    - WIND CHILL INDEX
  VSB    - VISIBILITY IN MILES
  HX     - HEAT INDEX
  TC     - TEMPERATURE IN CELSIUS
  VRB    - VARIABLE WIND DIRECTION
  N/A    - NOT AVAILABLE




USA.gov is the U.S. government's official web portal to all federal, state and local government web resources and services.